CES8667 ZSPD-ZBAD

Flight info

Callsign CES8667
Flight time N/A
Altitude 36100
Route PIK81D/17L PIKAS G330 PIMOL A593 DALIM W157 BEKDO/K0843S1130 W157 AVBOX AVBOX9M
Aircraft B38M/M-SDE1FGHILORVWXY/HB1

Departure

Time N/A
Airport Shanghai Pudong International Airport (ZSPD)

Arrival

Time 2026-04-24 16:05
Airport Beijing Daxing International Airport (ZBAD)
Time Latitude Longitude Altitude Speed Heading
2026-04-24 15:05 34.45228 117.93629 36106 ft 453 kts 339°
2026-04-24 15:06 34.56963 117.89429 36107 ft 452 kts 339°
2026-04-24 15:06 34.62589 117.87409 36104 ft 452 kts 339°
2026-04-24 15:07 34.68606 117.85248 36103 ft 452 kts 339°
2026-04-24 15:07 34.74627 117.83081 36104 ft 452 kts 339°
2026-04-24 15:08 34.80641 117.80914 36105 ft 452 kts 339°
2026-04-24 15:08 34.86651 117.78725 36107 ft 452 kts 339°
2026-04-24 15:09 34.92662 117.76526 36109 ft 452 kts 339°
2026-04-24 15:09 34.98662 117.74329 36106 ft 452 kts 339°
2026-04-24 15:10 35.04677 117.72123 36108 ft 452 kts 339°
2026-04-24 15:10 35.10679 117.69923 36106 ft 452 kts 339°
2026-04-24 15:11 35.16685 117.67720 36107 ft 452 kts 339°
2026-04-24 15:11 35.22687 117.65515 36105 ft 451 kts 339°
2026-04-24 15:12 35.28686 117.63307 36107 ft 451 kts 339°
2026-04-24 15:12 35.37694 117.59986 36105 ft 451 kts 339°
2026-04-24 15:13 35.43692 117.57771 36105 ft 451 kts 339°
2026-04-24 15:13 35.49687 117.55552 36105 ft 451 kts 339°
2026-04-24 15:14 35.55686 117.53329 36101 ft 451 kts 339°
2026-04-24 15:14 35.61683 117.51103 36101 ft 451 kts 339°
2026-04-24 15:15 35.67680 117.48874 36102 ft 451 kts 340°
2026-04-24 15:15 35.73327 117.46771 36095 ft 451 kts 340°
2026-04-24 15:16 35.79278 117.44553 36100 ft 451 kts 340°
2026-04-24 15:16 35.85263 117.42318 36095 ft 451 kts 340°
2026-04-24 15:17 35.91258 117.40075 36091 ft 451 kts 340°
2026-04-24 15:17 35.97254 117.37830 36101 ft 451 kts 340°
2026-04-24 15:18 36.03242 117.35611 36092 ft 451 kts 340°
2026-04-24 15:18 36.09231 117.33398 36093 ft 450 kts 340°
2026-04-24 15:19 36.15210 117.31184 36085 ft 450 kts 340°
2026-04-24 15:19 36.21206 117.28961 36090 ft 450 kts 340°
2026-04-24 15:20 36.27193 117.26737 36071 ft 449 kts 340°
2026-04-24 15:20 36.33155 117.24519 36074 ft 449 kts 340°
2026-04-24 15:21 36.39121 117.22297 36068 ft 448 kts 340°
2026-04-24 15:21 36.44935 117.19652 36068 ft 445 kts 335°
2026-04-24 15:22 36.50635 117.16706 36065 ft 445 kts 334°
2026-04-24 15:23 36.59177 117.12264 36055 ft 444 kts 334°
2026-04-24 15:23 36.67682 117.07827 36047 ft 443 kts 334°
2026-04-24 15:25 36.81701 117.00491 36035 ft 441 kts 334°
2026-04-24 15:26 36.95680 116.93148 36031 ft 440 kts 335°
2026-04-24 15:27 37.12212 116.84424 36025 ft 439 kts 334°
2026-04-24 15:29 37.29396 116.76506 36015 ft 442 kts 341°
2026-04-24 15:31 37.49900 116.68742 36010 ft 443 kts 341°
2026-04-24 15:33 37.72878 116.59992 36006 ft 442 kts 341°
2026-04-24 15:34 37.87481 116.54401 36005 ft 440 kts 341°
2026-04-24 15:35 38.01307 116.46905 35983 ft 435 kts 324°
2026-04-24 15:36 38.06240 116.42489 35987 ft 434 kts 323°
2026-04-24 15:36 38.13576 116.35776 35995 ft 434 kts 323°
2026-04-24 15:37 38.18450 116.31296 35988 ft 433 kts 323°
2026-04-24 15:37 38.23578 116.27370 35991 ft 433 kts 340°
2026-04-24 15:38 38.26519 116.26514 35992 ft 436 kts 351°
2026-04-24 15:38 38.29550 116.26428 35984 ft 439 kts
2026-04-24 15:38 38.35568 116.27907 35984 ft 443 kts 11°
2026-04-24 15:39 38.41538 116.29815 35989 ft 444 kts 12°
2026-04-24 15:39 38.47491 116.31835 35985 ft 444 kts 12°
2026-04-24 15:40 38.53440 116.33884 35984 ft 444 kts 12°
2026-04-24 15:40 38.59089 116.35836 35981 ft 444 kts 12°
2026-04-24 15:41 38.65012 116.37990 35975 ft 445 kts 19°
2026-04-24 15:41 38.70736 116.40999 35977 ft 446 kts 20°
2026-04-24 15:42 38.76443 116.44048 35977 ft 445 kts 20°
2026-04-24 15:42 38.79306 116.45583 35607 ft 446 kts 20°
2026-04-24 15:42 38.82181 116.47124 34574 ft 454 kts 20°
2026-04-24 15:43 38.85081 116.48683 34013 ft 449 kts 19°
2026-04-24 15:43 38.87927 116.50214 33574 ft 442 kts 19°
2026-04-24 15:43 38.90758 116.51737 32840 ft 441 kts 19°
2026-04-24 15:43 38.93542 116.53253 32711 ft 426 kts 20°
2026-04-24 15:44 38.96206 116.54715 32719 ft 410 kts 20°
2026-04-24 15:44 38.98767 116.56131 32750 ft 392 kts 20°
2026-04-24 15:44 39.03655 116.58855 32641 ft 373 kts 19°
2026-04-24 15:45 39.06025 116.59989 32386 ft 354 kts 11°
2026-04-24 15:45 39.08384 116.60296 32100 ft 333 kts 354°
2026-04-24 15:45 39.10640 116.60172 31882 ft 317 kts 353°
2026-04-24 15:45 39.12778 116.59983 31660 ft 303 kts 352°
2026-04-24 15:46 39.14836 116.59743 31423 ft 289 kts 351°
2026-04-24 15:46 39.16791 116.59482 31174 ft 277 kts 350°
2026-04-24 15:46 39.18654 116.59217 30931 ft 264 kts 349°
2026-04-24 15:46 39.20462 116.58949 30446 ft 262 kts 349°
2026-04-24 15:47 39.22280 116.58675 29849 ft 263 kts 349°
2026-04-24 15:47 39.24085 116.58400 29324 ft 260 kts 349°
2026-04-24 15:47 39.25865 116.58126 28747 ft 259 kts 349°
2026-04-24 15:47 39.27646 116.57851 28212 ft 256 kts 349°
2026-04-24 15:48 39.29406 116.57578 27680 ft 255 kts 349°
2026-04-24 15:48 39.31158 116.57306 27145 ft 254 kts 349°
2026-04-24 15:48 39.32969 116.57023 25960 ft 276 kts 350°
2026-04-24 15:48 39.34948 116.56715 24730 ft 296 kts 351°
2026-04-24 15:49 39.37046 116.56389 23527 ft 312 kts 351°
2026-04-24 15:49 39.39240 116.56046 22163 ft 324 kts 351°
2026-04-24 15:49 39.41494 116.55695 20871 ft 332 kts 352°
2026-04-24 15:49 39.43809 116.55333 19620 ft 338 kts 352°
2026-04-24 15:50 39.46163 116.54964 18403 ft 343 kts 352°
2026-04-24 15:50 39.48520 116.54596 17102 ft 345 kts 352°
2026-04-24 15:50 39.50862 116.54229 15848 ft 332 kts 352°
2026-04-24 15:50 39.53106 116.53877 14648 ft 320 kts 352°
2026-04-24 15:51 39.55281 116.53536 13400 ft 305 kts 352°
2026-04-24 15:51 39.57288 116.53221 12077 ft 279 kts 352°
2026-04-24 15:51 39.59130 116.52931 10912 ft 259 kts 352°
2026-04-24 15:51 39.60873 116.52659 9743 ft 248 kts 351°
2026-04-24 15:52 39.62560 116.52394 8480 ft 243 kts 351°
2026-04-24 15:52 39.64219 116.52133 7252 ft 238 kts 352°
2026-04-24 15:52 39.65853 116.51877 6042 ft 235 kts 352°
2026-04-24 15:52 39.67465 116.51621 4827 ft 232 kts 352°
2026-04-24 15:53 39.69048 116.51377 3610 ft 229 kts 351°
2026-04-24 15:53 39.70623 116.51129 2414 ft 226 kts 351°
2026-04-24 15:53 39.72109 116.50895 1868 ft 199 kts 350°
2026-04-24 15:53 39.73346 116.50696 1904 ft 161 kts 350°
2026-04-24 15:54 39.74422 116.50528 1886 ft 156 kts 349°
2026-04-24 15:54 39.75488 116.50349 1928 ft 156 kts 350°
2026-04-24 15:54 39.76567 116.50182 1918 ft 156 kts 350°
2026-04-24 15:54 39.77642 116.50012 1901 ft 156 kts 350°
2026-04-24 15:55 39.78706 116.49802 1890 ft 155 kts 340°
2026-04-24 15:55 39.79519 116.48972 1855 ft 149 kts 300°
2026-04-24 15:55 39.79834 116.47760 1910 ft 147 kts 273°
2026-04-24 15:55 39.79840 116.46433 1947 ft 147 kts 266°
2026-04-24 15:56 39.79817 116.45106 1925 ft 147 kts 266°
2026-04-24 15:56 39.79755 116.43782 1915 ft 147 kts 263°
2026-04-24 15:56 39.79644 116.42463 1910 ft 147 kts 262°
2026-04-24 15:56 39.79520 116.41145 1903 ft 147 kts 261°
2026-04-24 15:57 39.79303 116.39860 1861 ft 146 kts 239°
2026-04-24 15:57 39.78511 116.39122 1854 ft 144 kts 194°
2026-04-24 15:57 39.77520 116.38915 1931 ft 145 kts 187°
2026-04-24 15:57 39.76516 116.38832 1917 ft 145 kts 183°
2026-04-24 15:58 39.75504 116.38842 1926 ft 146 kts 180°
2026-04-24 15:58 39.74491 116.38914 1923 ft 146 kts 178°
2026-04-24 15:58 39.73487 116.39029 1916 ft 145 kts 176°
2026-04-24 15:58 39.72484 116.39163 1868 ft 145 kts 176°
2026-04-24 15:59 39.71488 116.39305 1901 ft 145 kts 176°
2026-04-24 15:59 39.70488 116.39455 1894 ft 144 kts 176°
2026-04-24 15:59 39.69496 116.39610 1874 ft 144 kts 175°
2026-04-24 15:59 39.68501 116.39765 1839 ft 144 kts 177°
2026-04-24 16:00 39.67512 116.39919 1844 ft 144 kts 176°
2026-04-24 16:00 39.66518 116.40077 1905 ft 145 kts 177°
2026-04-24 16:00 39.65522 116.40237 1894 ft 144 kts 176°
2026-04-24 16:00 39.64527 116.40392 1860 ft 144 kts 177°
2026-04-24 16:01 39.63538 116.40554 1890 ft 144 kts 177°
2026-04-24 16:01 39.62550 116.40703 1889 ft 143 kts 178°
2026-04-24 16:01 39.61563 116.40858 1861 ft 143 kts 177°
2026-04-24 16:01 39.60575 116.41014 1901 ft 143 kts 177°
2026-04-24 16:02 39.59587 116.41167 1843 ft 144 kts 179°
2026-04-24 16:02 39.58601 116.41319 1692 ft 143 kts 177°
2026-04-24 16:02 39.57621 116.41481 1534 ft 142 kts 177°
2026-04-24 16:02 39.56651 116.41635 1341 ft 140 kts 178°
2026-04-24 16:03 39.55685 116.41789 1170 ft 140 kts 178°
2026-04-24 16:03 39.54730 116.41935 992 ft 139 kts 175°
2026-04-24 16:03 39.53761 116.42090 817 ft 141 kts 174°
2026-04-24 16:03 39.52792 116.42241 649 ft 142 kts 174°
2026-04-24 16:04 39.51813 116.42398 459 ft 142 kts 173°
2026-04-24 16:04 39.50831 116.42546 314 ft 143 kts 172°
2026-04-24 16:04 39.49845 116.42702 140 ft 143 kts 173°
2026-04-24 16:04 39.48900 116.42855 99 ft 125 kts 173°
2026-04-24 16:05 39.48034 116.43001 101 ft 25 kts 172°
2026-04-24 16:05 39.47913 116.43006 100 ft 17 kts 187°
2026-04-24 16:06 39.47697 116.42918 94 ft 14 kts 207°
2026-04-24 16:06 39.47682 116.42845 92 ft 6 kts 311°
2026-04-24 16:06 39.47783 116.42818 89 ft 13 kts 354°
2026-04-24 16:07 39.47895 116.42804 93 ft 20 kts 354°
2026-04-24 16:07 39.48066 116.42773 93 ft 30 kts 351°
2026-04-24 16:07 39.48445 116.42714 91 ft 24 kts 354°
2026-04-24 16:08 39.48634 116.42686 93 ft 28 kts 352°
2026-04-24 16:08 39.48905 116.42640 89 ft 18 kts 353°
2026-04-24 16:09 39.49198 116.42595 90 ft 26 kts 353°
2026-04-24 16:09 39.49350 116.42569 91 ft 20 kts 351°
2026-04-24 16:09 39.49489 116.42481 89 ft 16 kts 326°
2026-04-24 16:09 39.49578 116.42391 88 ft 17 kts 298°
2026-04-24 16:10 39.49540 116.41844 87 ft 18 kts 263°
2026-04-24 16:11 39.49530 116.41622 89 ft 7 kts 311°
2026-04-24 16:11 39.49595 116.41624 88 ft 12 kts 51°
2026-04-24 16:11 39.49645 116.41691 90 ft 15 kts
2026-04-24 16:12 39.49718 116.41858 88 ft 14 kts 83°
2026-04-24 16:12 39.49731 116.41991 88 ft 19 kts 83°
2026-04-24 16:12 39.49778 116.42254 92 ft 14 kts 29°
2026-04-24 16:13 39.49881 116.42257 91 ft 15 kts 354°
2026-04-24 16:13 39.50082 116.42220 90 ft 8 kts 326°
2026-04-24 16:14 39.50095 116.41995 87 ft 13 kts 263°
2026-04-24 16:14 39.50089 116.41874 87 ft 14 kts 294°
2026-04-24 16:14 39.50157 116.41701 90 ft 16 kts 264°
2026-04-24 16:15 39.50161 116.41633 88 ft 14 kts 293°
2026-04-24 16:15 39.50310 116.41434 88 ft 14 kts 291°
2026-04-24 16:16 39.50312 116.41284 89 ft 5 kts 264°
2026-04-24 16:16 39.50317 116.41260 91 ft 5 kts 304°
2026-04-24 16:17 39.50386 116.41239 90 ft 1 kts 353°
2026-04-24 16:17 39.50403 116.41236 89 ft 1 kts 353°
2026-04-24 16:18 39.50406 116.41235 89 ft 0 kts 353°